Location: Starry Hill Observatory
(46.8582°N, 122.3590°W)
Time: 12:36:03
(UTC-08:00)

ISS - Visible Passes

Search period start: 27 February 2017 00:00
Search period end: 09 March 2017 00:00
Orbit: 399 x 408 km, 51.6° (Epoch: 28 February)

Date Brightness Start Highest point End Pass type
(mag) Time Alt. Az. Time Alt. Az. Time Alt. Az.
27 Feb 0.2 06:23:03 10° SE 06:23:30 10° SE 06:23:57 10° SE visible
01 Mar -0.8 06:11:56 10° S 06:14:30 21° SE 06:17:04 10° E visible
02 Mar -0.3 05:20:43 10° SSE 05:22:09 12° SE 05:23:36 10° ESE visible
03 Mar -2.1 06:02:27 10° SW 06:05:34 42° SE 06:08:43 10° ENE visible
04 Mar -1.3 05:10:53 13° S 05:13:06 25° SE 05:15:52 10° E visible
05 Mar -0.7 04:20:42 15° SE 04:20:42 15° SE 04:22:38 10° E visible
05 Mar -3.3 05:53:25 10° WSW 05:56:43 83° SSE 06:00:02 10° ENE visible
06 Mar -2.7 05:03:02 33° SSW 05:04:08 50° SSE 05:07:20 10° ENE visible
07 Mar -1.1 04:12:37 24° ESE 04:12:37 24° ESE 04:14:31 10° E visible
07 Mar -3.1 05:45:15 14° W 05:47:55 58° NNW 05:51:12 10° ENE visible
08 Mar -3.4 04:54:44 62° WSW 04:55:13 86° NNW 04:58:32 10° ENE visible
